Time,TemperatureF,DewpointF,PressureIn,WindDirection,WindDirectionDegrees,WindSpeedMPH,WindSpeedGustMPH,Humidity,HourlyPrecipIn,Conditions,Clouds,dailyrainin,SoftwareType,DateUTC
2013-05-04 00:02:00,42.0,38.0,-100.00,SW,215,1.0,1.0,85,-99.99,,,-99.99,,2013-05-04 04:02:00,
2013-05-04 00:13:00,42.0,38.0,-100.00,SSW,205,1.0,1.0,85,-99.99,,,-99.99,,2013-05-04 04:13:00,
2013-05-04 00:23:00,42.0,38.0,-100.00,SSW,210,1.0,2.0,86,-99.99,,,-99.99,,2013-05-04 04:23:00,
2013-05-04 00:33:00,42.0,38.0,-100.00,SW,225,1.0,1.0,86,-99.99,,,-99.99,,2013-05-04 04:33:00,
2013-05-04 00:42:00,42.0,38.0,-100.00,South,180,1.0,1.0,87,-99.99,,,-99.99,,2013-05-04 04:42:00,
2013-05-04 00:52:00,42.0,38.0,-100.00,SSW,205,1.0,1.0,87,-99.99,,,-99.99,,2013-05-04 04:52:00,
2013-05-04 01:02:00,42.0,38.0,-100.00,WSW,240,0.0,1.0,87,-99.99,,,-99.99,,2013-05-04 05:02:00,
2013-05-04 01:12:00,42.0,38.0,-100.00,SW,225,1.0,1.0,87,-99.99,,,-99.99,,2013-05-04 05:12:00,
2013-05-04 01:22:00,42.0,38.0,-100.00,WNW,300,2.0,2.0,88,-99.99,,,-99.99,,2013-05-04 05:22:00,
2013-05-04 01:32:00,41.0,38.0,-100.00,SW,225,1.0,2.0,88,-99.99,,,-99.99,,2013-05-04 05:32:00,
2013-05-04 01:43:00,41.0,38.0,-100.00,SW,215,1.0,2.0,89,-99.99,,,-99.99,,2013-05-04 05:43:00,
2013-05-04 01:52:00,41.0,38.0,-100.00,West,270,0.0,2.0,89,-99.99,,,-99.99,,2013-05-04 05:52:00,
2013-05-04 02:01:00,41.0,38.0,-100.00,SW,235,1.0,1.0,90,-99.99,,,-99.99,,2013-05-04 06:01:00,
2013-05-04 02:12:00,41.0,38.0,-100.00,SW,235,1.0,1.0,90,-99.99,,,-99.99,,2013-05-04 06:12:00,
2013-05-04 02:22:00,41.0,38.0,-100.00,SSE,155,0.0,1.0,90,-99.99,,,-99.99,,2013-05-04 06:22:00,
2013-05-04 02:32:00,41.0,38.0,-100.00,SW,215,1.0,1.0,90,-99.99,,,-99.99,,2013-05-04 06:32:00,
2013-05-04 02:42:00,40.0,38.0,-100.00,South,185,1.0,2.0,91,-99.99,,,-99.99,,2013-05-04 06:42:00,
2013-05-04 02:52:00,40.0,38.0,-100.00,SW,215,1.0,1.0,91,-99.99,,,-99.99,,2013-05-04 06:52:00,
2013-05-04 03:01:00,40.0,38.0,-100.00,SSE,160,1.0,2.0,91,-99.99,,,-99.99,,2013-05-04 07:01:00,
2013-05-04 03:11:00,40.0,37.0,-100.00,South,180,1.0,2.0,91,-99.99,,,-99.99,,2013-05-04 07:11:00,
2013-05-04 03:22:00,39.0,37.0,-100.00,SSE,165,1.0,2.0,91,-99.99,,,-99.99,,2013-05-04 07:22:00,
2013-05-04 03:32:00,39.0,37.0,-100.00,SW,215,1.0,1.0,91,-99.99,,,-99.99,,2013-05-04 07:32:00,
2013-05-04 03:42:00,39.0,37.0,-100.00,SSE,160,1.0,2.0,91,-99.99,,,-99.99,,2013-05-04 07:42:00,
2013-05-04 03:52:00,39.0,37.0,-100.00,West,280,0.0,1.0,91,-99.99,,,-99.99,,2013-05-04 07:52:00,
2013-05-04 04:02:00,39.0,36.0,-100.00,NW,315,1.0,1.0,91,-99.99,,,-99.99,,2013-05-04 08:02:00,
2013-05-04 04:12:00,38.0,36.0,-100.00,SE,125,1.0,1.0,91,-99.99,,,-99.99,,2013-05-04 08:12:00,
2013-05-04 04:22:00,38.0,36.0,-100.00,SSE,155,1.0,2.0,92,-99.99,,,-99.99,,2013-05-04 08:22:00,
2013-05-04 04:32:00,38.0,36.0,-100.00,SE,125,1.0,2.0,93,-99.99,,,-99.99,,2013-05-04 08:32:00,
2013-05-04 04:42:00,38.0,36.0,-100.00,South,190,0.0,1.0,93,-99.99,,,-99.99,,2013-05-04 08:42:00,
2013-05-04 04:52:00,38.0,36.0,-100.00,SW,220,0.0,1.0,92,-99.99,,,-99.99,,2013-05-04 08:52:00,
2013-05-04 05:02:00,38.0,36.0,-100.00,SSW,210,0.0,1.0,93,-99.99,,,-99.99,,2013-05-04 09:02:00,
2013-05-04 05:11:00,38.0,36.0,-100.00,WNW,295,0.0,1.0,93,-99.99,,,-99.99,,2013-05-04 09:11:00,
2013-05-04 05:22:00,38.0,36.0,-100.00,SSE,160,1.0,1.0,93,-99.99,,,-99.99,,2013-05-04 09:22:00,
2013-05-04 05:32:00,38.0,36.0,-100.00,West,265,0.0,1.0,93,-99.99,,,-99.99,,2013-05-04 09:32:00,
2013-05-04 05:42:00,38.0,36.0,-100.00,NW,310,1.0,2.0,93,-99.99,,,-99.99,,2013-05-04 09:42:00,
2013-05-04 05:53:00,38.0,36.0,-100.00,SSW,200,0.0,1.0,93,-99.99,,,-99.99,,2013-05-04 09:53:00,
2013-05-04 06:03:00,38.0,36.0,-100.00,WNW,300,0.0,1.0,93,-99.99,,,-99.99,,2013-05-04 10:03:00,
2013-05-04 06:12:00,37.0,36.0,-100.00,NW,325,0.0,1.0,93,-99.99,,,-99.99,,2013-05-04 10:12:00,
2013-05-04 06:23:00,37.0,35.0,-100.00,SSW,195,1.0,1.0,93,-99.99,,,-99.99,,2013-05-04 10:23:00,
2013-05-04 06:33:00,37.0,35.0,-100.00,WSW,255,0.0,1.0,93,-99.99,,,-99.99,,2013-05-04 10:33:00,
2013-05-04 06:42:00,37.0,35.0,-100.00,West,280,0.0,1.0,93,-99.99,,,-99.99,,2013-05-04 10:42:00,
2013-05-04 06:53:00,37.0,35.0,-100.00,SSE,165,0.0,1.0,93,-99.99,,,-99.99,,2013-05-04 10:53:00,
2013-05-04 07:02:00,38.0,36.0,-100.00,WNW,295,0.0,1.0,93,-99.99,,,-99.99,,2013-05-04 11:02:00,
2013-05-04 07:11:00,39.0,37.0,-100.00,WSW,240,0.0,2.0,94,-99.99,,,-99.99,,2013-05-04 11:11:00,
2013-05-04 07:21:00,40.0,38.0,-100.00,East,85,0.0,2.0,93,-99.99,,,-99.99,,2013-05-04 11:21:00,
2013-05-04 07:32:00,41.0,39.0,-100.00,NW,310,1.0,2.0,93,-99.99,,,-99.99,,2013-05-04 11:32:00,
2013-05-04 07:46:00,42.0,40.0,-100.00,East,85,0.0,2.0,93,-99.99,,,-99.99,,2013-05-04 11:46:00,
2013-05-04 07:57:00,43.0,41.0,-100.00,North,10,1.0,2.0,93,-99.99,,,-99.99,,2013-05-04 11:57:00,
2013-05-04 08:10:00,44.0,42.0,-100.00,ESE,120,1.0,2.0,93,-99.99,,,-99.99,,2013-05-04 12:10:00,
2013-05-04 08:30:00,46.0,43.0,-100.00,NNW,340,2.0,3.0,89,-99.99,,,-99.99,,2013-05-04 12:30:00,
2013-05-04 08:37:00,46.0,43.0,-100.00,NNW,340,2.0,3.0,89,-99.99,,,-99.99,,2013-05-04 12:37:00,
2013-05-04 08:52:00,51.0,41.0,-100.00,NE,40,3.0,7.0,69,-99.99,,,-99.99,,2013-05-04 12:52:00,
2013-05-04 09:01:00,51.0,41.0,-100.00,East,100,5.0,8.0,68,-99.99,,,-99.99,,2013-05-04 13:01:00,
2013-05-04 09:11:00,52.0,42.0,-100.00,NE,50,5.0,10.0,68,-99.99,,,-99.99,,2013-05-04 13:11:00,
2013-05-04 09:22:00,52.0,41.0,-100.00,NE,40,5.0,9.0,66,-99.99,,,-99.99,,2013-05-04 13:22:00,
2013-05-04 09:32:00,53.0,41.0,-100.00,NNE,30,6.0,10.0,63,-99.99,,,-99.99,,2013-05-04 13:32:00,
2013-05-04 09:42:00,53.0,41.0,-100.00,ENE,60,3.0,10.0,64,-99.99,,,-99.99,,2013-05-04 13:42:00,
2013-05-04 09:52:00,54.0,41.0,-100.00,ESE,105,5.0,13.0,62,-99.99,,,-99.99,,2013-05-04 13:52:00,
2013-05-04 10:02:00,55.0,41.0,-100.00,NE,45,2.0,12.0,59,-99.99,,,-99.99,,2013-05-04 14:02:00,
2013-05-04 10:11:00,55.0,41.0,-100.00,ENE,75,6.0,14.0,60,-99.99,,,-99.99,,2013-05-04 14:11:00,
2013-05-04 10:21:00,55.0,42.0,-100.00,ENE,65,5.0,14.0,61,-99.99,,,-99.99,,2013-05-04 14:21:00,
2013-05-04 10:32:00,56.0,42.0,-100.00,North,0,5.0,12.0,60,-99.99,,,-99.99,,2013-05-04 14:32:00,
2013-05-04 10:42:00,56.0,42.0,-100.00,ENE,65,6.0,13.0,59,-99.99,,,-99.99,,2013-05-04 14:42:00,
2013-05-04 10:52:00,56.0,42.0,-100.00,ENE,65,9.0,15.0,59,-99.99,,,-99.99,,2013-05-04 14:52:00,
2013-05-04 11:02:00,56.0,41.0,-100.00,East,95,5.0,14.0,57,-99.99,,,-99.99,,2013-05-04 15:02:00,
2013-05-04 11:12:00,58.0,42.0,-100.00,NNE,20,3.0,13.0,54,-99.99,,,-99.99,,2013-05-04 15:12:00,
2013-05-04 11:22:00,57.0,41.0,-100.00,ENE,75,7.0,13.0,55,-99.99,,,-99.99,,2013-05-04 15:22:00,
2013-05-04 11:33:00,58.0,41.0,-100.00,East,85,8.0,15.0,54,-99.99,,,-99.99,,2013-05-04 15:33:00,
2013-05-04 11:43:00,58.0,40.0,-100.00,East,85,6.0,15.0,51,-99.99,,,-99.99,,2013-05-04 15:43:00,
2013-05-04 11:52:00,58.0,40.0,-100.00,NE,45,8.0,18.0,52,-99.99,,,-99.99,,2013-05-04 15:52:00,
2013-05-04 12:03:00,59.0,41.0,-100.00,ESE,105,7.0,15.0,50,-99.99,,,-99.99,,2013-05-04 16:03:00,
2013-05-04 12:12:00,60.0,41.0,-100.00,NE,35,7.0,15.0,49,-99.99,,,-99.99,,2013-05-04 16:12:00,
2013-05-04 12:22:00,59.0,39.0,-100.00,ENE,70,8.0,17.0,47,-99.99,,,-99.99,,2013-05-04 16:22:00,
2013-05-04 12:33:00,60.0,38.0,-100.00,East,85,7.0,13.0,45,-99.99,,,-99.99,,2013-05-04 16:33:00,
2013-05-04 12:42:00,60.0,38.0,-100.00,ESE,105,6.0,15.0,45,-99.99,,,-99.99,,2013-05-04 16:42:00,
2013-05-04 12:52:00,59.0,38.0,-100.00,ESE,110,8.0,14.0,46,-99.99,,,-99.99,,2013-05-04 16:52:00,
2013-05-04 13:02:00,60.0,37.0,-100.00,East,85,9.0,18.0,43,-99.99,,,-99.99,,2013-05-04 17:02:00,
2013-05-04 13:12:00,60.0,37.0,-100.00,NNE,30,5.0,15.0,42,-99.99,,,-99.99,,2013-05-04 17:12:00,
2013-05-04 13:22:00,60.0,37.0,-100.00,NE,50,8.0,14.0,43,-99.99,,,-99.99,,2013-05-04 17:22:00,
2013-05-04 13:32:00,60.0,37.0,-100.00,ENE,65,8.0,20.0,43,-99.99,,,-99.99,,2013-05-04 17:32:00,
2013-05-04 13:42:00,60.0,36.0,-100.00,East,95,10.0,18.0,42,-99.99,,,-99.99,,2013-05-04 17:42:00,
2013-05-04 13:52:00,60.0,35.0,-100.00,NE,50,9.0,20.0,39,-99.99,,,-99.99,,2013-05-04 17:52:00,
2013-05-04 14:01:00,60.0,34.0,-100.00,ENE,65,9.0,17.0,37,-99.99,,,-99.99,,2013-05-04 18:01:00,
2013-05-04 14:12:00,61.0,34.0,-100.00,North,5,5.0,17.0,37,-99.99,,,-99.99,,2013-05-04 18:12:00,
2013-05-04 14:22:00,61.0,34.0,-100.00,ESE,105,10.0,18.0,37,-99.99,,,-99.99,,2013-05-04 18:22:00,
2013-05-04 14:32:00,61.0,34.0,-100.00,ENE,75,7.0,22.0,36,-99.99,,,-99.99,,2013-05-04 18:32:00,
2013-05-04 14:42:00,61.0,30.0,-100.00,NE,50,9.0,18.0,31,-99.99,,,-99.99,,2013-05-04 18:42:00,
2013-05-04 14:52:00,61.0,33.0,-100.00,NE,45,7.0,14.0,35,-99.99,,,-99.99,,2013-05-04 18:52:00,
2013-05-04 15:02:00,61.0,38.0,-100.00,ESE,105,6.0,14.0,43,-99.99,,,-99.99,,2013-05-04 19:02:00,
2013-05-04 15:11:00,61.0,38.0,-100.00,ESE,105,6.0,14.0,43,-99.99,,,-99.99,,2013-05-04 19:11:00,
2013-05-04 15:21:00,61.0,37.0,-100.00,ENE,70,3.0,17.0,41,-99.99,,,-99.99,,2013-05-04 19:21:00,
2013-05-04 15:32:00,61.0,38.0,-100.00,East,85,7.0,12.0,43,-99.99,,,-99.99,,2013-05-04 19:32:00,
2013-05-04 15:42:00,60.0,36.0,-100.00,SW,225,2.0,18.0,41,-99.99,,,-99.99,,2013-05-04 19:42:00,
2013-05-04 15:52:00,59.0,38.0,-100.00,East,80,8.0,15.0,45,-99.99,,,-99.99,,2013-05-04 19:52:00,
2013-05-04 16:02:00,60.0,37.0,-100.00,East,85,3.0,14.0,42,-99.99,,,-99.99,,2013-05-04 20:02:00,
2013-05-04 16:11:00,60.0,37.0,-100.00,SSE,150,5.0,10.0,42,-99.99,,,-99.99,,2013-05-04 20:11:00,
2013-05-04 16:22:00,60.0,37.0,-100.00,East,85,8.0,12.0,42,-99.99,,,-99.99,,2013-05-04 20:22:00,
2013-05-04 16:32:00,59.0,35.0,-100.00,ESE,120,5.0,12.0,41,-99.99,,,-99.99,,2013-05-04 20:32:00,
2013-05-04 16:42:00,60.0,34.0,-100.00,East,85,5.0,12.0,38,-99.99,,,-99.99,,2013-05-04 20:42:00,
2013-05-04 16:52:00,59.0,34.0,-100.00,East,90,6.0,14.0,39,-99.99,,,-99.99,,2013-05-04 20:52:00,
2013-05-04 17:02:00,59.0,34.0,-100.00,ESE,110,6.0,10.0,39,-99.99,,,-99.99,,2013-05-04 21:02:00,
2013-05-04 17:12:00,60.0,32.0,-100.00,East,100,3.0,18.0,35,-99.99,,,-99.99,,2013-05-04 21:12:00,
2013-05-04 17:22:00,59.0,35.0,-100.00,East,85,3.0,13.0,40,-99.99,,,-99.99,,2013-05-04 21:22:00,
2013-05-04 17:33:00,58.0,34.0,-100.00,NE,40,7.0,14.0,40,-99.99,,,-99.99,,2013-05-04 21:33:00,
2013-05-04 17:43:00,58.0,36.0,-100.00,East,95,8.0,13.0,43,-99.99,,,-99.99,,2013-05-04 21:43:00,
2013-05-04 17:53:00,59.0,33.0,-100.00,East,90,6.0,12.0,38,-99.99,,,-99.99,,2013-05-04 21:53:00,
2013-05-04 18:03:00,59.0,33.0,-100.00,East,90,2.0,10.0,38,-99.99,,,-99.99,,2013-05-04 22:03:00,
2013-05-04 18:12:00,58.0,33.0,-100.00,East,95,6.0,13.0,39,-99.99,,,-99.99,,2013-05-04 22:12:00,
2013-05-04 18:22:00,57.0,34.0,-100.00,East,85,5.0,12.0,41,-99.99,,,-99.99,,2013-05-04 22:22:00,
2013-05-04 18:33:00,56.0,33.0,-100.00,SE,135,5.0,9.0,43,-99.99,,,-99.99,,2013-05-04 22:33:00,
2013-05-04 18:42:00,55.0,33.0,-100.00,East,85,8.0,14.0,42,-99.99,,,-99.99,,2013-05-04 22:42:00,
2013-05-04 18:52:00,55.0,34.0,-100.00,East,90,5.0,12.0,45,-99.99,,,-99.99,,2013-05-04 22:52:00,
2013-05-04 19:02:00,54.0,33.0,-100.00,East,95,5.0,12.0,46,-99.99,,,-99.99,,2013-05-04 23:02:00,
2013-05-04 19:12:00,53.0,32.0,-100.00,East,80,5.0,13.0,46,-99.99,,,-99.99,,2013-05-04 23:12:00,
2013-05-04 19:22:00,52.0,33.0,-100.00,East,80,7.0,13.0,48,-99.99,,,-99.99,,2013-05-04 23:22:00,
2013-05-04 19:32:00,51.0,31.0,-100.00,East,90,6.0,10.0,46,-99.99,,,-99.99,,2013-05-04 23:32:00,
2013-05-04 19:42:00,51.0,32.0,-100.00,East,95,5.0,10.0,48,-99.99,,,-99.99,,2013-05-04 23:42:00,
2013-05-04 19:52:00,50.0,33.0,-100.00,East,85,6.0,12.0,51,-99.99,,,-99.99,,2013-05-04 23:52:00,
2013-05-04 20:02:00,49.0,34.0,-100.00,East,80,8.0,13.0,55,-99.99,,,-99.99,,2013-05-05 00:02:00,
2013-05-04 20:11:00,49.0,35.0,-100.00,East,85,6.0,12.0,58,-99.99,,,-99.99,,2013-05-05 00:11:00,
2013-05-04 20:22:00,48.0,36.0,-100.00,East,90,6.0,10.0,62,-99.99,,,-99.99,,2013-05-05 00:22:00,
2013-05-04 20:32:00,48.0,36.0,-100.00,East,90,6.0,10.0,62,-99.99,,,-99.99,,2013-05-05 00:32:00,
2013-05-04 20:42:00,46.0,36.0,-100.00,SE,125,2.0,5.0,69,-99.99,,,-99.99,,2013-05-05 00:42:00,
2013-05-04 20:52:00,45.0,36.0,-100.00,ESE,105,1.0,9.0,70,-99.99,,,-99.99,,2013-05-05 00:52:00,
2013-05-04 21:01:00,45.0,36.0,-100.00,ESE,120,2.0,8.0,72,-99.99,,,-99.99,,2013-05-05 01:01:00,
2013-05-04 21:11:00,45.0,36.0,-100.00,ESE,115,1.0,3.0,73,-99.99,,,-99.99,,2013-05-05 01:11:00,
2013-05-04 21:22:00,44.0,36.0,-100.00,ESE,105,0.0,2.0,73,-99.99,,,-99.99,,2013-05-05 01:22:00,
2013-05-04 21:32:00,44.0,36.0,-100.00,SE,140,0.0,3.0,74,-99.99,,,-99.99,,2013-05-05 01:32:00,
2013-05-04 21:42:00,43.0,36.0,-100.00,ESE,105,2.0,3.0,74,-99.99,,,-99.99,,2013-05-05 01:42:00,
2013-05-04 21:52:00,43.0,35.0,-100.00,East,85,1.0,2.0,75,-99.99,,,-99.99,,2013-05-05 01:52:00,
2013-05-04 22:02:00,43.0,36.0,-100.00,ESE,115,1.0,1.0,76,-99.99,,,-99.99,,2013-05-05 02:02:00,
2013-05-04 22:12:00,42.0,36.0,-100.00,South,170,0.0,2.0,77,-99.99,,,-99.99,,2013-05-05 02:12:00,
2013-05-04 22:22:00,42.0,36.0,-100.00,SE,125,0.0,1.0,79,-99.99,,,-99.99,,2013-05-05 02:22:00,
2013-05-04 22:32:00,41.0,35.0,-100.00,SSE,160,1.0,1.0,80,-99.99,,,-99.99,,2013-05-05 02:32:00,
2013-05-04 22:42:00,41.0,35.0,-100.00,SSE,150,0.0,1.0,81,-99.99,,,-99.99,,2013-05-05 02:42:00,
2013-05-04 22:52:00,40.0,35.0,-100.00,SSE,155,0.0,1.0,82,-99.99,,,-99.99,,2013-05-05 02:52:00,
2013-05-04 23:01:00,40.0,35.0,-100.00,SSW,210,1.0,1.0,83,-99.99,,,-99.99,,2013-05-05 03:01:00,
2013-05-04 23:12:00,39.0,35.0,-100.00,SSW,200,1.0,2.0,85,-99.99,,,-99.99,,2013-05-05 03:12:00,
2013-05-04 23:22:00,39.0,35.0,-100.00,SSW,200,1.0,1.0,86,-99.99,,,-99.99,,2013-05-05 03:22:00,
2013-05-04 23:33:00,39.0,35.0,-100.00,SW,220,1.0,1.0,86,-99.99,,,-99.99,,2013-05-05 03:33:00,
2013-05-04 23:42:00,38.0,35.0,-100.00,SSW,210,1.0,1.0,87,-99.99,,,-99.99,,2013-05-05 03:42:00,
2013-05-04 23:53:00,38.0,35.0,-100.00,SW,215,1.0,1.0,88,-99.99,,,-99.99,,2013-05-05 03:53:00,